Location: Kitchener
(43.4500°N, 80.5000°W)
Time: 14:55:35
(UTC-04:00)

Cosmos 1939 Rocket - Visible Passes

Search period start: 24 April 2017 00:00
Search period end: 04 May 2017 00:00
Orbit: 533 x 586 km, 97.5° (Epoch: 23 April)

Date Brightness Start Highest point End Pass type
(mag) Time Alt. Az. Time Alt. Az. Time Alt. Az.
24 Apr 3.2 21:08:39 10° SSE 21:12:34 50° ENE 21:16:28 10° N visible
24 Apr 5.6 22:45:43 10° WSW 22:47:47 14° W 22:49:50 10° WNW visible
25 Apr 3.2 21:07:29 10° SSE 21:11:23 48° ENE 21:15:16 10° N visible
25 Apr 5.6 22:44:26 10° WSW 22:46:35 14° W 22:48:43 10° WNW visible
26 Apr 3.2 21:06:19 10° SSE 21:10:13 47° ENE 21:14:03 10° N visible
26 Apr 5.6 22:43:11 10° SW 22:45:23 14° W 22:47:36 10° WNW visible
27 Apr 3.3 21:05:10 10° SE 21:09:02 45° ENE 21:12:51 10° N visible
27 Apr 5.6 22:41:54 10° SW 22:44:12 15° W 22:46:28 10° WNW visible
28 Apr 3.3 21:04:01 10° SE 21:07:51 44° ENE 21:11:39 10° N visible
28 Apr 5.5 22:40:39 10° SW 22:43:00 15° W 22:45:21 10° NW visible
29 Apr 3.3 21:02:52 10° SE 21:06:40 42° ENE 21:10:26 10° N visible
29 Apr 5.5 22:39:23 10° SW 22:41:48 15° W 22:44:13 10° NW visible
30 Apr 3.4 21:01:43 10° SE 21:05:29 41° ENE 21:09:14 10° N visible
30 Apr 5.5 22:38:08 10° SW 22:40:36 16° W 22:43:05 10° NW visible
01 May 3.4 21:00:34 10° SE 21:04:18 40° ENE 21:08:01 10° N visible
01 May 5.5 22:36:52 10° SW 22:39:25 16° W 22:41:57 10° NW visible
02 May 3.5 20:59:25 10° SE 21:03:07 39° ENE 21:06:49 10° N visible
02 May 5.4 22:35:38 10° SW 22:38:13 17° W 22:40:48 10° NW visible
03 May 3.5 20:58:15 10° SE 21:01:56 37° ENE 21:05:36 10° N visible
03 May 5.4 22:34:23 10° SW 22:37:01 17° W 22:39:39 10° NW visible
